Theta_e
330 330 330 329 329 329 329 328 328 328 327 327 327 327 327 327 327 326 326 326 326 326 326 326 326 326 326 326 326 326 326 326 326 326 326 326 326 326 326 326 326 326
330 330 329 329 329 329 328 328 328 328 328 328 327 327 327 327 327 327 327 327 327 326 326 326 326 326 326 326 326 327 327 327 327 326 325 325 325 325 325 326 326 326
330 329 329 329 329 328 328 328 328 328 328 328 328 328 327 327 327 327 327 327 327 327 327 327 327 327 327 327 327 327 328 327 327 327 326 325 324 324 325 325 325 326
329 329 329 329 329 328 328 328 328 328 328 328 328 328 327 327 327 327 327 327 327 327 328 328 328 328 328 328 328 328 328 328 327 327 327 326 325 324 324 324 324 325
329 328 328 328 328 328 328 328 328 328 328 328 328 328 327 327 327 327 327 327 327 327 327 328 328 328 328 328 328 328 328 328 327 327 327 326 326 326 324 323 323 323
328 328 328 328 328 328 328 328 328 328 328 328 328 328 328 328 328 328 328 328 328 327 327 327 328 328 328 328 328 328 328 328 327 327 327 327 327 326 324 323 323 323
327 327 328 328 328 328 328 328 328 328 328 328 328 328 328 329 329 328 329 328 328 328 327 327 327 327 327 327 327 327 327 326 326 326 326 326 326 325 323 322 322 322
327 327 327 327 328 328 328 328 328 328 328 328 328 329 329 329 329 328 328 328 327 327 326 326 326 326 326 326 325 325 324 323 324 325 326 325 326 325 322 320 320 321
326 326 326 327 327 327 327 328 328 328 328 328 328 329 328 328 328 327 327 326 326 326 325 325 325 325 325 325 325 325 324 323 324 325 325 325 324 324 322 320 321 321
325 325 326 326 326 327 327 327 328 328 328 328 327 327 327 326 326 325 325 325 324 324 324 324 324 323 323 323 323 324 323 323 324 324 324 324 322 321 320 321 322 322
323 324 324 325 325 326 326 326 326 325 325 325 325 325 324 324 324 324 323 323 323 323 323 322 322 323 323 323 322 322 323 323 323 323 323 323 321 320 320 321 321 321
318 319 320 320 321 321 321 321 322 322 322 323 322 323 322 322 322 322 321 322 323 322 320 320 321 321 321 321 322 322 322 322 322 322 322 321 320 320 320 320 320 321
312 312 313 314 315 316 317 318 319 320 321 321 321 321 320 320 320 319 320 320 321 321 320 321 321 321 321 320 320 321 321 320 320 320 320 319 319 320 320 320 320 319
309 310 311 312 313 315 316 317 318 319 319 319 319 319 319 319 318 318 318 318 319 319 319 319 320 320 320 319 319 319 319 319 318 319 319 319 319 320 319 318 318 318
310 310 311 312 314 315 316 316 316 317 318 318 318 318 318 317 316 316 315 315 315 316 316 317 317 317 318 317 317 317 318 318 318 318 319 319 319 318 317 316 317 317
311 312 312 313 314 314 315 316 316 316 316 317 316 316 315 314 313 312 311 310 310 311 312 313 313 314 314 315 315 316 317 317 317 318 318 318 317 317 316 316 316 317
311 312 312 313 314 314 314 314 314 315 314 314 314 313 312 311 310 307 306 306 307 309 310 312 312 312 313 314 315 315 316 316 316 316 316 316 316 316 316 315 315 315
310 311 311 311 312 312 312 312 312 312 312 311 311 310 309 308 307 305 305 305 305 306 308 310 311 312 312 313 313 314 314 315 315 316 315 315 315 315 314 314 313 313
310 310 310 310 310 310 310 310 310 309 309 309 308 307 306 305 304 304 305 306 306 306 307 308 309 310 310 310 311 313 314 314 315 315 314 314 314 313 312 312 311 311
310 310 310 310 310 310 309 308 308 307 307 306 305 304 304 304 304 305 306 307 308 308 308 309 310 311 310 310 310 312 313 313 313 313 313 313 313 312 311 310 309 309
310 310 310 310 309 308 307 307 306 305 304 303 303 303 303 304 305 306 308 308 308 309 310 310 310 310 311 310 311 311 312 312 312 312 312 312 311 311 310 309 308 308
310 310 309 308 307 305 305 305 304 303 302 302 302 303 304 305 306 307 308 308 309 310 311 311 311 311 311 311 311 311 311 311 312 311 311 310 310 309 308 308 308 308
309 309 308 307 304 304 304 304 303 302 302 302 303 303 305 306 306 307 308 308 308 309 310 311 311 311 311 311 311 311 311 312 311 310 310 309 308 307 307 307 307 307
308 308 307 305 303 304 305 304 303 302 302 302 302 303 305 306 307 308 308 308 308 308 309 310 311 311 311 311 311 311 312 312 311 310 310 309 308 307 306 306 307 306
308 307 307 306 305 305 305 303 303 302 302 302 302 303 305 306 307 308 308 308 309 309 309 310 311 311 310 310 310 311 311 311 310 310 309 308 307 307 306 305 305 305
307 306 306 306 306 305 304 302 302 302 302 302 303 304 305 305 306 307 308 308 309 309 309 309 309 309 309 308 308 309 309 310 309 309 308 308 307 306 304 304 304 303
Wind_Speed
44 43 41 41 41 39 37 34 34 33 32 32 32 33 33 32 31 29 29 30 29 30 30 31 31 31 32 33 32 33 34 34 33 32 31 31 31 31 32 33 34 35
43 42 41 40 39 38 37 35 34 32 32 33 34 34 33 32 30 29 29 29 29 30 30 30 30 31 31 32 32 33 34 34 33 32 31 31 30 30 30 30 31 34
41 40 40 40 39 37 36 34 33 33 34 34 34 34 33 31 30 29 29 29 29 30 30 30 30 30 31 32 32 33 33 33 33 32 31 30 29 30 30 29 30 33
40 40 39 39 38 37 35 33 34 35 35 35 35 34 32 31 30 30 29 29 30 30 30 30 31 31 31 32 33 33 32 32 32 32 32 31 30 29 27 25 27 29
39 39 38 37 37 36 35 35 36 36 36 36 35 33 32 31 30 30 30 30 30 30 30 31 31 31 31 31 32 32 31 31 32 32 33 33 31 28 26 25 27 27
37 36 36 36 36 36 36 37 37 37 36 35 34 33 32 31 31 31 30 30 30 30 31 31 30 30 30 30 30 31 31 32 33 32 33 33 30 25 23 24 26 27
35 35 35 35 35 35 36 36 36 36 35 34 33 32 31 31 31 30 30 30 29 29 29 29 28 28 28 28 28 29 29 29 29 28 28 27 25 22 21 23 25 28
35 35 34 34 34 34 34 35 35 34 33 32 32 31 30 29 29 28 28 28 28 28 27 26 26 26 26 25 26 27 28 27 26 25 26 27 27 25 23 24 26 27
32 33 32 32 32 33 33 34 34 33 31 30 30 29 28 27 27 26 26 26 26 25 24 23 23 23 23 23 25 26 26 27 28 28 29 29 28 25 24 25 27 27
30 31 30 30 31 32 33 32 31 30 29 29 28 27 26 25 24 24 23 23 23 23 22 22 22 22 22 23 23 23 25 28 29 29 27 25 23 22 22 24 26 26
29 29 29 30 31 32 32 30 29 28 28 27 26 25 24 23 23 22 22 22 22 22 22 21 21 21 21 22 23 24 26 27 25 23 22 22 22 22 22 23 24 26
28 29 30 31 31 31 30 29 28 27 26 25 25 24 23 23 22 22 22 21 21 21 22 22 21 20 21 22 23 23 23 21 19 19 21 21 21 21 23 25 25 26
28 29 30 30 29 28 27 26 26 25 25 24 24 24 23 23 23 22 22 21 21 21 21 21 20 20 21 20 20 19 18 18 19 21 21 21 21 23 23 23 22 23
27 28 27 26 26 25 25 24 24 24 24 24 25 25 24 24 23 23 24 23 23 23 23 22 22 21 21 20 19 17 18 21 22 22 22 22 22 22 20 18 17 18
25 25 24 24 24 23 23 23 24 24 24 25 25 25 25 25 25 25 25 25 25 25 25 25 25 25 24 24 23 22 22 23 22 21 21 21 20 19 17 16 15 15
23 23 23 23 23 24 24 24 24 25 25 26 26 26 26 25 25 24 23 23 23 23 22 23 22 22 22 22 22 22 22 22 21 20 20 19 18 17 16 14 14 13
24 24 24 24 25 25 25 26 26 26 27 27 27 26 26 25 23 23 22 21 21 21 20 19 18 17 17 16 17 17 18 19 19 19 19 18 17 16 14 12 12 12
25 25 26 26 27 27 27 27 27 27 27 26 26 25 23 21 21 20 19 18 19 21 22 22 20 19 18 17 17 17 17 18 18 17 16 16 15 14 13 12 12 11
27 27 27 28 28 28 28 27 26 26 26 25 24 22 20 19 18 17 15 14 15 17 18 19 20 19 19 19 19 19 18 18 18 16 14 13 13 12 12 11 10 10
28 29 29 29 29 28 27 26 26 25 25 23 21 20 19 19 18 17 17 16 16 16 15 16 18 18 19 19 19 19 18 17 17 16 15 14 13 12 11 9 8 7
30 30 30 29 28 27 26 26 26 25 24 23 21 20 20 20 18 18 18 18 17 17 17 18 18 18 19 19 19 18 17 17 17 17 16 16 15 14 12 9 7 5
32 31 31 30 29 27 28 28 28 27 26 24 23 22 21 20 19 19 19 19 19 19 19 19 19 19 20 19 19 19 18 17 17 16 16 15 14 13 10 8 7 6
34 33 32 31 30 30 31 32 30 29 27 25 24 24 23 23 22 21 20 19 19 19 19 20 20 20 20 19 19 18 17 16 16 15 14 13 11 9 8 7 7 7
36 35 34 33 32 33 34 34 32 30 28 27 26 26 26 24 23 21 21 20 20 21 20 20 19 19 19 19 18 17 16 15 15 14 13 12 10 9 9 9 8 8
37 37 36 35 36 36 36 35 33 31 30 28 27 26 26 24 23 22 22 22 22 22 22 21 20 20 20 20 19 18 17 16 16 16 15 14 13 12 11 10 9 8
38 38 38 38 38 38 36 34 33 31 30 28 27 27 25 24 24 24 24 23 23 22 22 21 20 20 19 18 18 18 18 18 18 18 17 15 14 14 13 11 10 9
Wind_Direction
229 229 231 233 235 237 238 239 240 240 241 242 245 248 249 251 251 249 249 249 249 249 249 249 250 250 251 252 253 254 255 255 254 256 259 260 260 256 251 247 244 242
229 229 231 233 235 237 238 239 241 242 244 247 249 251 252 253 253 252 252 252 252 252 252 251 251 252 252 253 254 253 252 252 253 258 261 263 267 267 264 259 254 249
229 229 230 232 234 236 238 239 242 245 248 250 251 252 253 254 255 255 255 255 254 254 254 254 253 253 253 253 253 251 250 251 252 255 258 261 267 266 265 266 263 257
229 230 231 233 235 237 239 241 243 246 248 250 251 252 254 256 257 257 257 256 255 254 255 255 254 253 252 251 251 250 251 252 253 254 254 256 257 255 258 269 272 267
231 232 232 234 236 238 240 242 245 247 248 250 252 253 255 256 257 257 256 256 255 254 254 254 253 253 253 253 253 252 253 255 255 254 252 251 250 250 258 268 271 270
232 233 234 236 238 239 241 243 245 246 248 251 252 254 255 256 256 256 256 256 255 255 254 253 252 252 253 253 253 253 255 256 254 251 250 248 246 253 265 269 269 270
233 235 237 239 240 240 242 244 246 247 249 252 253 254 254 255 255 255 255 256 255 255 254 254 254 254 254 254 253 254 256 257 257 255 252 249 249 258 271 276 274 271
235 236 237 238 238 239 241 243 246 248 249 250 251 253 253 252 253 254 254 254 253 253 254 255 256 255 255 255 255 257 257 259 262 261 260 259 258 260 269 277 276 270
234 235 236 236 237 238 241 243 245 247 248 249 250 251 251 251 252 252 252 252 252 252 253 255 257 258 258 258 258 258 258 259 260 258 257 258 257 260 269 276 275 272
232 233 233 234 236 238 241 242 244 245 245 246 248 249 249 248 249 249 249 249 249 250 252 255 257 258 258 258 258 257 258 260 261 257 254 255 259 267 274 276 274 272
230 230 231 234 236 238 240 241 242 243 243 244 244 245 245 245 245 245 246 247 247 249 252 255 256 257 257 256 255 255 255 256 256 254 254 259 267 273 277 279 278 276
229 230 232 235 236 237 238 239 240 240 240 241 241 242 243 243 243 243 244 245 246 248 251 252 251 252 254 255 254 253 250 250 253 255 259 266 273 279 282 282 280 278
229 231 232 233 234 235 236 237 237 237 238 239 240 241 242 241 241 241 241 242 243 245 247 246 243 244 246 248 249 249 249 257 266 266 266 270 274 276 276 275 275 277
228 229 230 230 231 232 234 235 235 236 237 238 239 240 241 241 240 240 240 240 242 242 242 243 244 244 246 249 253 257 261 267 270 268 267 269 270 269 267 266 269 272
226 226 226 227 229 230 231 233 234 235 236 237 239 240 242 242 242 242 242 241 242 243 242 243 245 245 247 252 257 260 261 262 263 263 263 264 265 265 264 262 264 269
223 224 224 225 227 228 230 232 233 235 236 238 240 241 242 244 246 246 244 241 241 242 242 242 244 245 246 249 251 253 253 253 257 260 262 263 266 267 265 260 260 267
223 223 225 226 227 228 230 232 233 235 237 239 241 242 244 245 246 245 242 238 235 235 234 234 235 236 237 239 242 244 247 250 256 260 261 261 264 268 269 267 266 271
223 224 225 226 226 228 230 231 233 235 238 240 241 242 242 242 240 239 237 235 231 230 230 230 231 232 233 235 238 241 246 249 251 254 258 259 261 267 275 277 278 281
223 223 225 226 226 228 229 231 233 236 237 237 237 235 232 231 230 228 226 225 223 225 226 226 228 231 232 232 233 236 240 244 246 248 254 258 260 263 269 273 277 285
222 223 225 227 227 227 228 230 232 233 232 229 227 224 221 221 221 217 217 218 218 217 217 219 221 223 226 228 228 230 235 241 244 247 249 253 256 255 257 262 270 279
221 223 225 227 226 225 226 228 228 227 224 220 218 218 217 217 216 216 217 218 218 218 218 219 218 218 221 225 225 225 230 235 238 240 242 245 248 248 247 247 252 262
221 222 224 224 223 221 222 223 224 222 219 215 214 214 215 215 216 218 219 218 221 223 222 223 223 222 223 225 225 225 229 231 233 234 235 237 237 236 234 232 235 238
221 220 221 221 218 218 219 220 220 219 215 212 211 210 210 213 215 216 218 219 223 225 225 228 228 223 222 223 222 222 223 224 225 225 227 228 226 222 219 215 218 222
221 220 219 217 216 217 219 218 218 216 213 211 210 210 211 212 214 216 217 219 223 224 226 230 229 224 223 225 224 220 219 220 221 221 223 223 220 218 215 210 212 218
222 219 218 217 218 219 219 218 216 214 211 210 210 212 213 212 213 215 218 219 222 223 222 224 227 227 225 225 224 222 221 221 221 222 222 219 217 217 216 214 214 216
220 219 218 218 220 220 218 217 216 212 209 208 208 210 213 213 213 215 219 220 221 221 220 220 224 226 222 219 219 219 218 218 218 217 216 213 212 215 217 218 217 216